Location: *
(53.9002°N, 27.5624°E)
Time: 23:08:48
(UTC+00:00)

NOSS 3-1 (A) - Pass Details

Date: 12 November 2019
Orbit: 769 x 1443 km, 63.4° (Epoch: 01 December)

Event Time Altitude Azimuth Distance (km) Brightness Sun altitude
Rises 16:45:34 0° 194° (SSW) 3,318 6.5 -21.8°
Reaches altitude 10° 16:48:01 10° 186° (S) 2,446 5.7 -22.2°
Enters shadow 16:52:20 36° 138° (SE) 1,395 4.0 -22.8°
